[[{"header":{"parameterUnit":"m.s-1","parameterCategory":1,"la1":30.2991,"la2":30.254,"lo1":-89.0895,"lo2":-89.0444,"dy":0.0017,"dx":0.0017,"nx":28,"ny":28,"refTime":"2025-11-13T09:00:00:Z","depth":0,"parameterNumber":2,"parameterNumberName":"U-component_of_WINDS"},"data":[0,0,0,0,0,0,0,0,0,0,0,0,0,0,0,0,0,0,0,0,0,0,0,0,0,0,0,0,0,0,0,0,0,0,0,0,0,0,0,0,0,0,0,0,0,0,0,0,0,0,0,0,0,0,0,0,0,0,-0.1322,-0.1322,0,-0.1273,-0.1273,-0.1272,-0.1242,-0.1242,-0.1241,-0.1241,-0.1191,-0.119,-0.1189,0,0,0,0,0,0,0,0,0,0,0,0,0,-0.139,-0.1389,-0.1322,-0.1322,-0.1321,-0.1274,-0.1273,-0.1272,-0.1242,-0.1242,-0.1241,-0.1241,-0.1192,-0.119,-0.1189,0,0,0,0,0,0,0,0,0,0,0,0,0,-0.1353,-0.1388,-0.1322,-0.13,-0.1298,-0.1274,-0.1273,-0.1272,-0.1242,-0.1242,-0.1241,-0.1241,-0.1192,-0.119,-0.1189,-0.1183,0,0,-0.1183,-0.1182,0,0,0,0,0,0,0,0,-0.1355,-0.135,-0.1304,-0.1302,-0.1299,-0.1263,-0.1278,-0.1242,-0.1242,-0.1263,-0.1241,-0.1241,-0.1215,-0.1212,-0.1203,-0.1181,-0.1178,-0.1183,-0.1182,-0.1181,-0.1181,0,0,0,0,0,0,0,-0.1357,-0.1352,-0.1303,-0.1303,-0.13,-0.1293,-0.1287,-0.1271,-0.1241,-0.1261,-0.1259,-0.1253,-0.1214,-0.1205,-0.1202,-0.1178,-0.1183,-0.1182,-0.118,-0.118,-0.115,-0.115,0,0,0,0,0,0,-0.1363,-0.1355,-0.1304,-0.1301,-0.1327,-0.1292,-0.1286,-0.1275,-0.1241,-0.1236,-0.1254,-0.1252,-0.1208,-0.1204,-0.12,-0.1192,-0.1181,-0.118,-0.1179,-0.115,-0.115,-0.115,0,0,0,0,0,0,-0.1365,-0.1359,-0.1306,-0.1327,-0.132,-0.1291,-0.1279,-0.1274,-0.1265,-0.1236,-0.123,-0.125,-0.1208,-0.1202,-0.1188,-0.119,-0.1179,-0.1177,-0.1149,-0.115,-0.115,-0.1176,0,0,0,0,0,0,-0.1367,-0.136,-0.1357,-0.1327,-0.1319,-0.1295,-0.1279,-0.1273,-0.1262,-0.126,-0.1231,-0.1226,-0.1207,-0.1191,-0.1186,-0.1187,-0.1176,-0.1149,-0.115,-0.115,-0.1175,-0.1177,-0.1179,0,0,0,0,0,-0.137,-0.1366,-0.1357,-0.1351,-0.1315,-0.1295,-0.129,-0.1269,-0.1262,-0.126,-0.1241,-0.1227,-0.1191,-0.1189,-0.1184,-0.1185,-0.1149,-0.1149,-0.115,-0.1174,-0.1177,-0.1179,0,0,0,0,0,0,-0.1396,-0.1362,-0.1351,-0.1338,-0.132,-0.129,-0.1285,-0.1272,-0.1255,-0.1254,-0.1228,-0.1222,-0.121,-0.1196,-0.1195,-0.1178,-0.1168,-0.1168,-0.1188,-0.1191,-0.1193,-0.1196,-0.1174,0,0,0,0,0,-0.14,-0.1387,-0.1358,-0.1349,-0.134,-0.1315,-0.1305,-0.129,-0.127,-0.1262,-0.1243,-0.1224,-0.1209,-0.1199,-0.1183,-0.1173,-0.1167,-0.1171,-0.1173,-0.1175,-0.1175,-0.117,-0.1172,-0.1152,-0.1152,-0.1152,0,0,-0.1409,-0.1389,-0.1381,-0.1354,-0.1338,-0.1325,-0.1308,-0.1295,-0.1285,-0.126,-0.1246,-0.1231,-0.1208,-0.1197,-0.119,-0.1184,-0.1179,-0.1176,-0.1178,-0.1176,-0.1171,-0.1173,-0.1175,-0.1153,-0.1153,-0.1152,0,0,-0.1418,-0.1401,-0.1392,-0.1377,-0.1354,-0.1337,-0.1335,-0.1308,-0.1297,-0.1282,-0.1264,-0.1252,-0.1226,-0.1211,-0.12,-0.1206,-0.1192,-0.1201,-0.1213,-0.1209,-0.121,-0.1211,-0.1214,-0.1216,-0.1201,-0.1201,-0.1201,0,-0.1432,-0.1412,-0.139,-0.1378,-0.1367,-0.1344,-0.1336,-0.1322,-0.1295,-0.1288,-0.1281,-0.1249,-0.1232,-0.1217,-0.1219,-0.1211,-0.1208,-0.1204,-0.1212,-0.1213,-0.1214,-0.1216,-0.1217,-0.1203,-0.1203,-0.1202,-0.1202,0,-0.143,-0.1417,-0.1412,-0.1387,-0.1375,-0.1365,-0.1343,-0.1333,-0.1321,-0.1305,-0.1291,-0.127,-0.125,-0.1246,-0.1232,-0.1229,-0.1227,-0.1217,-0.1206,-0.1217,-0.1219,-0.122,-0.1205,-0.1204,-0.1204,-0.1203,0,0,-0.1453,-0.1417,-0.1416,-0.1405,-0.1379,-0.1368,-0.1358,-0.1339,-0.1332,-0.1314,-0.1305,-0.1285,-0.1276,-0.1263,-0.1248,-0.1244,-0.1252,-0.1235,-0.1234,-0.1239,-0.1249,-0.1257,-0.1259,-0.1243,-0.1243,-0.1243,-0.1251,0,-0.1459,-0.1439,-0.142,-0.1407,-0.1395,-0.1375,-0.1366,-0.1349,-0.1335,-0.1323,-0.1307,-0.1293,-0.1281,-0.1274,-0.1269,-0.1252,-0.1254,-0.1251,-0.1235,-0.1235,-0.1242,-0.126,-0.1268,-0.1276,-0.1252,-0.1252,-0.1252,0,-0.1463,-0.1447,-0.1433,-0.1409,-0.1403,-0.1396,-0.1378,-0.1366,-0.1347,-0.1337,-0.1325,-0.1309,-0.1298,-0.1289,-0.1274,-0.1273,-0.1266,-0.1257,-0.1256,-0.1254,-0.1244,-0.1258,-0.1278,-0.128,-0.1253,-0.1253,-0.1253,0,-0.1482,-0.1457,-0.1446,-0.1437,-0.1409,-0.1404,-0.1392,-0.1373,-0.1363,-0.1348,-0.1342,-0.1325,-0.1316,-0.1304,-0.1285,-0.128,-0.1273,-0.1261,-0.1265,-0.1265,-0.1264,-0.1264,-0.1283,-0.1258,-0.1258,-0.1258,-0.1258,0,-0.149,-0.1483,-0.1455,-0.1448,-0.1439,-0.1418,-0.141,-0.1396,-0.138,-0.1371,-0.1352,-0.1344,-0.1319,-0.1308,-0.1294,-0.1284,-0.128,-0.1272,-0.1268,-0.1274,-0.1275,-0.1269,-0.1268,-0.1259,-0.1259,-0.1259,-0.1259,0,-0.151,-0.1491,-0.1478,-0.1452,-0.1446,-0.1441,-0.142,-0.1413,-0.1398,-0.1387,-0.1383,-0.136,-0.1346,-0.1326,-0.1306,-0.1297,-0.129,-0.1283,-0.1297,-0.1294,-0.1299,-0.1299,-0.1314,-0.1316,-0.129,-0.1291,-0.1291,0,-0.1517,-0.1511,-0.1486,-0.1478,-0.1467,-0.1455,-0.1446,-0.1425,-0.1416,-0.1395,-0.1391,-0.1377,-0.1364,-0.1343,-0.1325,-0.131,-0.1303,-0.131,-0.1301,-0.1308,-0.1304,-0.1305,-0.1305,-0.1312,-0.1312,-0.1313,-0.1313,0,-0.1531,-0.1522,-0.1509,-0.1494,-0.1483,-0.147,-0.1455,-0.1451,-0.1427,-0.1418,-0.1404,-0.1395,-0.1375,-0.1361,-0.1344,-0.1332,-0.1319,-0.1316,-0.1316,-0.1322,-0.133,-0.1327,-0.1303,-0.1316,-0.1315,-0.1315,-0.1315,-0.1315,-0.1545,-0.1539,-0.1521,-0.1508,-0.1495,-0.1483,-0.1476,-0.1461,-0.1449,-0.1432,-0.142,-0.1408,-0.139,-0.1367,-0.1356,-0.1346,-0.134,-0.134,-0.134,-0.134,-0.1343,-0.1332,-0.1343,-0.1343,-0.1343,-0.1342,-0.1342,0,-0.1559,-0.1547,-0.1535,-0.1516,-0.1506,-0.1495,-0.1479,-0.1471,-0.1461,-0.1446,-0.1434,-0.1419,-0.1406,-0.1387,-0.1373,-0.1369,-0.1363,-0.1366,-0.1366,-0.1364,-0.1348,-0.135,-0.1371,-0.1371,-0.1371,-0.1371,-0.1371,-0.1371,-0.1565,-0.1555,-0.1545,-0.1529,-0.1517,-0.1504,-0.1497,-0.1485,-0.1474,-0.1458,-0.1447,-0.1435,-0.142,-0.1404,-0.1392,-0.1387,-0.1383,-0.1388,-0.1382,-0.1367,-0.1365,-0.1362,-0.1364,-0.1388,-0.1388,-0.1398,-0.1398,-0.1398]},{"header":{"parameterUnit":"m.s-1","parameterCategory":1,"la1":30.2991,"la2":30.254,"lo1":-89.0895,"lo2":-89.0444,"dy":0.0017,"dx":0.0017,"nx":28,"ny":28,"refTime":"2025-11-13T09:00:00:Z","depth":0,"parameterNumber":3,"parameterNumberName":"V-component_of_WINDS"},"data":[0,0,0,0,0,0,0,0,0,0,0,0,0,0,0,0,0,0,0,0,0,0,0,0,0,0,0,0,0,0,0,0,0,0,0,0,0,0,0,0,0,0,0,0,0,0,0,0,0,0,0,0,0,0,0,0,0,0,2.0798,2.0798,0,2.0776,2.0776,2.0776,2.0777,2.0777,2.0777,2.0778,2.0751,2.075,2.0749,0,0,0,0,0,0,0,0,0,0,0,0,0,2.0835,2.0835,2.0798,2.0798,2.0797,2.0776,2.0776,2.0776,2.0777,2.0777,2.0777,2.0778,2.0751,2.075,2.0749,0,0,0,0,0,0,0,0,0,0,0,0,0,2.0817,2.0834,2.0798,2.0795,2.0795,2.0776,2.0776,2.0776,2.0777,2.0777,2.0778,2.0778,2.0752,2.075,2.0749,2.073,0,0,2.0744,2.0743,0,0,0,0,0,0,0,0,2.0818,2.0815,2.0796,2.0795,2.0795,2.078,2.0779,2.076,2.0776,2.0783,2.0778,2.0778,2.076,2.0758,2.0752,2.0728,2.0727,2.0744,2.0743,2.0742,2.0742,0,0,0,0,0,0,0,2.0819,2.0816,2.0789,2.0796,2.0795,2.0794,2.0792,2.0776,2.0769,2.0783,2.0783,2.0781,2.0759,2.0754,2.0752,2.0727,2.0744,2.0743,2.0742,2.0741,2.0685,2.0685,0,0,0,0,0,0,2.0822,2.0817,2.079,2.0788,2.0808,2.0793,2.079,2.0784,2.0769,2.0767,2.078,2.0781,2.0756,2.0753,2.0751,2.0727,2.0742,2.0741,2.074,2.0686,2.0685,2.0685,0,0,0,0,0,0,2.0822,2.0819,2.0791,2.0803,2.0799,2.0792,2.0784,2.0783,2.0778,2.0767,2.0766,2.0776,2.0756,2.0753,2.0735,2.0726,2.074,2.0739,2.0687,2.0686,2.0685,2.068,0,0,0,0,0,0,2.0823,2.0819,2.0813,2.0803,2.0799,2.0777,2.0784,2.0783,2.0776,2.0776,2.0763,2.0761,2.0757,2.0737,2.0734,2.0724,2.0738,2.0687,2.0686,2.0685,2.0681,2.0679,2.0678,0,0,0,0,0,2.0825,2.0812,2.0813,2.081,2.0791,2.0776,2.0774,2.077,2.0775,2.0768,2.0761,2.0761,2.0728,2.0736,2.0731,2.0721,2.0688,2.0687,2.0685,2.0682,2.0679,2.0678,0,0,0,0,0,0,2.082,2.081,2.0812,2.0795,2.0787,2.0777,2.0768,2.0768,2.0757,2.0758,2.0752,2.0749,2.0731,2.0725,2.0733,2.0702,2.0708,2.0706,2.0707,2.0705,2.0703,2.0705,2.0736,0,0,0,0,0,2.0817,2.0807,2.0799,2.0785,2.0781,2.0775,2.0769,2.0767,2.0757,2.0753,2.0745,2.0734,2.0721,2.0713,2.07,2.068,2.0676,2.0671,2.067,2.0668,2.0666,2.0654,2.0651,2.068,2.068,2.068,0,0,2.0811,2.0804,2.0798,2.0784,2.0777,2.0766,2.0772,2.076,2.0751,2.0751,2.0734,2.0727,2.0715,2.0696,2.0687,2.069,2.0657,2.0667,2.0666,2.0664,2.0652,2.065,2.0647,2.068,2.068,2.068,0,0,2.0793,2.0788,2.0776,2.0769,2.0759,2.0756,2.0753,2.0742,2.0739,2.0722,2.0721,2.071,2.0688,2.0679,2.0672,2.0651,2.065,2.0647,2.0638,2.0626,2.0623,2.0621,2.0613,2.061,2.0645,2.0645,2.0645,0,2.0786,2.077,2.0769,2.0757,2.075,2.0751,2.0738,2.0731,2.0717,2.0712,2.0715,2.0688,2.0679,2.0658,2.0653,2.0647,2.0642,2.0648,2.0624,2.0622,2.062,2.0612,2.0609,2.0644,2.0644,2.0644,2.0645,0,2.0762,2.0751,2.0742,2.073,2.0722,2.0709,2.0705,2.0697,2.0696,2.0691,2.0673,2.0663,2.0649,2.0643,2.0642,2.0621,2.0623,2.0626,2.0632,2.0617,2.0609,2.0606,2.0644,2.0644,2.0644,2.0644,0,0,2.074,2.0728,2.0725,2.0719,2.0708,2.0699,2.0686,2.0673,2.0666,2.0656,2.0644,2.0625,2.0628,2.0619,2.0616,2.0606,2.0589,2.061,2.0609,2.0605,2.0565,2.0563,2.0559,2.0589,2.0589,2.0588,2.0566,0,2.0721,2.0699,2.0698,2.0677,2.0667,2.0667,2.0656,2.0647,2.0642,2.0631,2.0625,2.0612,2.0616,2.0611,2.0601,2.0594,2.0581,2.0595,2.0576,2.0575,2.0579,2.0555,2.0553,2.0532,2.0563,2.0562,2.0562,0,2.0696,2.0687,2.0666,2.0657,2.0652,2.0642,2.063,2.062,2.0609,2.0606,2.0597,2.0595,2.058,2.0588,2.0566,2.0575,2.0567,2.0562,2.0561,2.0559,2.0567,2.0551,2.0525,2.0522,2.0557,2.0558,2.0558,0,2.0681,2.0664,2.0649,2.0644,2.0633,2.0626,2.062,2.0611,2.0603,2.0592,2.0586,2.0573,2.0565,2.0554,2.0549,2.0555,2.0526,2.0534,2.0522,2.0522,2.0515,2.0516,2.0487,2.0512,2.0512,2.0512,2.0512,0,2.0659,2.0646,2.0642,2.0633,2.0618,2.0615,2.06,2.0595,2.0586,2.0575,2.0574,2.0563,2.0557,2.0544,2.0539,2.0521,2.0518,2.0514,2.0512,2.0513,2.0514,2.0507,2.0508,2.0511,2.0511,2.0511,2.0512,0,2.064,2.0637,2.0621,2.0612,2.0609,2.0599,2.059,2.058,2.0576,2.0561,2.0558,2.055,2.0535,2.0529,2.051,2.0507,2.0486,2.0486,2.049,2.0489,2.0477,2.0478,2.0443,2.0438,2.0467,2.0466,2.0466,0,2.0626,2.0617,2.0607,2.06,2.0595,2.0584,2.0576,2.0573,2.0565,2.0553,2.0544,2.053,2.0518,2.0494,2.0485,2.0471,2.047,2.0458,2.0467,2.0468,2.0468,2.0469,2.0467,2.0456,2.0456,2.0456,2.0456,0,2.0602,2.0601,2.0591,2.058,2.0572,2.0563,2.0554,2.0548,2.0543,2.0533,2.0519,2.051,2.0492,2.0477,2.0462,2.0454,2.0453,2.0453,2.045,2.045,2.0452,2.045,2.0484,2.0454,2.0454,2.0454,2.0454,2.0454,2.0584,2.0575,2.0567,2.0556,2.0549,2.0541,2.0532,2.0526,2.0515,2.0501,2.0499,2.0483,2.0472,2.0452,2.0444,2.0431,2.0433,2.0428,2.0427,2.0425,2.0424,2.0455,2.0428,2.0428,2.0428,2.0428,2.0428,0,2.0559,2.0554,2.0544,2.0532,2.0523,2.0525,2.0515,2.0507,2.0494,2.0484,2.0473,2.0456,2.0441,2.0432,2.0417,2.0408,2.0407,2.0404,2.0404,2.0402,2.0423,2.0428,2.0405,2.0405,2.0405,2.0405,2.0405,2.0405,2.0545,2.053,2.0528,2.0509,2.0503,2.0489,2.0483,2.0475,2.0468,2.0449,2.0438,2.0433,2.0422,2.0407,2.0393,2.039,2.0384,2.0381,2.0378,2.0398,2.0401,2.0403,2.0407,2.038,2.038,2.0358,2.0357,2.0357]}]]